TimeCST,TemperatureF,Dew PointF,Humidity,Sea Level PressureIn,VisibilityMPH,Wind Direction,Wind SpeedMPH,Gust SpeedMPH,PrecipitationIn,Events,Conditions,WindDirDegrees,DateUTC
12:53 AM,51.1,44.1,77,30.16,10.0,Calm,Calm,-,N/A,,Clear,0,2012-11-22 06:53:00
1:53 AM,52.0,44.1,74,30.15,10.0,SSE,4.6,-,N/A,,Clear,150,2012-11-22 07:53:00
2:53 AM,46.9,44.1,90,30.14,10.0,Calm,Calm,-,N/A,,Clear,0,2012-11-22 08:53:00
3:53 AM,46.9,43.0,86,30.13,9.0,East,3.5,-,N/A,,Clear,80,2012-11-22 09:53:00
4:53 AM,48.9,43.0,80,30.15,10.0,SSE,4.6,-,N/A,,Clear,160,2012-11-22 10:53:00
5:53 AM,46.9,42.1,83,30.17,10.0,Calm,Calm,-,N/A,,Clear,0,2012-11-22 11:53:00
6:53 AM,45.0,42.1,90,30.19,10.0,Calm,Calm,-,N/A,,Clear,0,2012-11-22 12:53:00
7:53 AM,51.1,44.1,77,30.19,10.0,Calm,Calm,-,N/A,,Clear,0,2012-11-22 13:53:00
8:53 AM,57.0,46.0,67,30.20,10.0,South,5.8,-,N/A,,Clear,190,2012-11-22 14:53:00
9:53 AM,64.9,50.0,58,30.19,10.0,SSW,10.4,-,N/A,,Clear,200,2012-11-22 15:53:00
10:53 AM,71.1,54.0,55,30.18,10.0,South,11.5,-,N/A,,Clear,190,2012-11-22 16:53:00
11:53 AM,75.0,53.1,46,30.14,10.0,South,15.0,18.4,N/A,,Clear,180,2012-11-22 17:53:00
12:53 PM,75.0,50.0,41,30.12,10.0,SW,12.7,-,N/A,,Clear,220,2012-11-22 18:53:00
1:53 PM,75.0,48.0,38,30.09,10.0,South,10.4,21.9,N/A,,Clear,190,2012-11-22 19:53:00
2:53 PM,73.9,48.9,41,30.09,10.0,South,13.8,-,N/A,,Clear,180,2012-11-22 20:53:00
3:53 PM,72.0,50.0,46,30.09,10.0,South,12.7,-,N/A,,Clear,190,2012-11-22 21:53:00
4:53 PM,69.1,52.0,54,30.09,10.0,South,5.8,-,N/A,,Clear,190,2012-11-22 22:53:00
5:53 PM,64.9,53.1,65,30.09,10.0,South,3.5,-,N/A,,Clear,170,2012-11-22 23:53:00
6:53 PM,63.0,53.1,70,30.11,10.0,SSE,3.5,-,N/A,,Clear,160,2012-11-23 00:53:00
7:53 PM,61.0,53.1,75,30.12,10.0,Calm,Calm,-,N/A,,Clear,0,2012-11-23 01:53:00
8:53 PM,57.0,52.0,83,30.14,10.0,SSE,3.5,-,N/A,,Clear,150,2012-11-23 02:53:00
9:53 PM,57.9,53.1,84,30.14,10.0,SSE,3.5,-,N/A,,Clear,160,2012-11-23 03:53:00
10:53 PM,61.0,53.1,75,30.13,10.0,South,9.2,-,N/A,,Clear,190,2012-11-23 04:53:00
11:53 PM,62.1,54.0,75,30.13,10.0,South,8.1,-,N/A,,Mostly Cloudy,190,2012-11-23 05:53:00